Home > Weather > Saipan > Past weeks

Flag for Northern Mariana Islands Weather for the Past 2 Weeks in Saipan, Northern Mariana Islands

Now
75 °F

Passing clouds.


Feels Like: 75 °F
Forecast: 72 / 77 °F
Wind: 10 mph from Northeast

Location: Saipan International Airport

Current Time: Feb 10, 2016 at 12:17:50 AM

Latest Report: Feb 9, 2016 at 10:54 PM


Visibility: 10 mi

Pressure: 30.02 "Hg

Humidity: 82%

Dew point: 69 °F

Location of SaipanLocation

Historic Weather in Saipan — Graph

°F

Saipan Temperature Yesterday

Maximum temperature yesterday: 86 °F (at 12:54 PM)
Minimum temperature yesterday: 74 °F (at 1:54 AM)
Average temperature yesterday: 78 °F

High & Low Weather Summary for the Past Weeks

 TemperatureHumidityPressure
High87 °F (Jan 31, 1:54 PM)100% (Jan 28, 10:01 AM)30.14 "Hg (Jan 28, 10:01 AM)
Low73 °F (Jan 28, 10:01 AM)48% (Jan 29, 1:54 PM)29.90 "Hg (Feb 6, 3:54 AM)
Average79 °F79%30.03 "Hg
* Reported Jan 25 10:54 PM — Feb 9 10:54 PM, Saipan, Weather by CustomWeather, © 2016

Note: Actual official high and low records may vary slightly from our data, if they occured in-between our weather recording intervals... More about our weather records

Advertising

Saipan Weather History for the Previous 24 Hours

 ConditionsComfort  
Time TempWeatherWind HumidityBarometerVisibility
10:54 PM
Tue, Feb 9
75 °FPassing clouds.10 mph82%30.02 "Hg10 mi
9:54 PM75 °FMild.12 mph82%30.01 "Hg10 mi
8:54 PM75 °FPassing clouds.16 mph85%30.01 "Hg10 mi
7:54 PM75 °FMild.14 mph82%29.99 "Hg10 mi
6:54 PM75 °FPassing clouds.15 mph79%29.97 "Hg10 mi
5:54 PM77 °FPassing clouds.16 mph77%29.95 "Hg10 mi
4:54 PM83 °FPassing clouds.18 mph61%29.95 "Hg10 mi
3:54 PM81 °FPassing clouds.18 mph65%29.93 "Hg10 mi
2:54 PM82 °FScattered clouds.21 mph65%29.94 "Hg10 mi
1:54 PM86 °FScattered clouds.21 mph62%29.95 "Hg10 mi
12:54 PM86 °FScattered clouds.20 mph62%29.97 "Hg10 mi
11:54 AM82 °FScattered clouds.24 mph70%30.00 "Hg10 mi
10:54 AM84 °FPassing clouds.22 mph66%30.03 "Hg10 mi
9:54 AM82 °FPassing clouds.25 mph70%30.04 "Hg10 mi
8:54 AM81 °FPassing clouds.16 mph74%30.05 "Hg10 mi
7:54 AM79 °FPassing clouds.15 mph74%30.04 "Hg10 mi
6:54 AM77 °FScattered clouds.12 mph79%30.02 "Hg10 mi
5:54 AM74 °FMild.9 mph85%30.01 "Hg10 mi
4:54 AM74 °FPassing clouds.10 mph88%29.99 "Hg10 mi
3:54 AM75 °FPassing clouds.10 mph78%29.99 "Hg10 mi
2:54 AM77 °FPassing clouds.10 mph74%30.00 "Hg10 mi
1:54 AM74 °FPassing clouds.10 mph85%30.01 "Hg10 mi
12:54 AM76 °FMild.14 mph82%30.03 "Hg10 mi
Weather by CustomWeather, © 2016

See weather overviewHow to use our weather pages